Flight Track Log - Related Links

Times and Time Zones

All times are in EDT time to prevent confusion due to time zone crossing. See the UAL341 flight status page for this flight to view local times or setup timezone preferences in your user account.

Time Position Orientation Groundspeed Altitude Reporting Facility
EDT Latitude Longitude Course Direction KTS MPH feet Rate Location/Type
Thu 10:23:24 PM 39.8667 -104.5667 105° East 186 214 7,800  Level Denver TRACON
Thu 10:24:30 PM 39.8500 -104.4833 105° East 249 287 10,600 2,839 Climbing Denver TRACON
Thu 10:24:57 PM 39.8275 -104.4458 128° Southeast 280 322 12,200 2,966 Climbing Denver Center
Thu 10:25:59 PM 39.7886 -104.3331 114° Southeast 344 396 15,000 2,489 Climbing Denver Center
Thu 10:27:12 PM 39.7428 -104.2025 115° Southeast 366 421 17,800 2,578 Climbing Denver Center
Thu 10:28:14 PM 39.6886 -104.0436 114° Southeast 397 457 20,800 2,516 Climbing Denver Center
Thu 10:29:16 PM 39.6378 -103.9106 116° Southeast 413 475 23,000 2,323 Climbing Denver Center
Thu 10:30:18 PM 39.5831 -103.7628 116° Southeast 425 489 25,600 2,098 Climbing Denver Center
Thu 10:31:19 PM 39.5464 -103.6194 108° East 413 475 27,300 1,659 Climbing Denver Center
Thu 10:32:21 PM 39.5053 -103.4647 109° East 445 512 29,000 1,659 Climbing Denver Center
Thu 10:33:22 PM 39.4642 -103.3100 109° East 451 519 30,700 1,512 Climbing Denver Center
Thu 10:34:24 PM 39.4214 -103.1475 109° East 468 539 32,100 1,548 Climbing Denver Center
Thu 10:35:26 PM 39.3789 -102.9864 109° East 470 541 33,900 1,659 Climbing Denver Center
Thu 10:36:27 PM 39.3342 -102.8253 110° East 472 543 35,500 1,366 Climbing Denver Center
Thu 10:37:29 PM 39.2883 -102.6556 109° East 480 552 36,700 1,366 Climbing Denver Center
Thu 10:38:30 PM 39.2397 -102.4775 109° East 472 543 38,300 1,122 Climbing Denver Center
Thu 10:39:32 PM 39.1983 -102.3244 109° East 473 544 39,000 341 Climbing Denver Center
Thu 10:40:33 PM 39.1556 -102.1717 110° East 474 545 39,000  Level Denver Center
Thu 10:41:34 PM 39.1067 -101.9936 109° East 473 544 39,000  Level Denver Center
Thu 10:42:36 PM 39.0622 -101.8397 110° East 479 551 39,000  Level Denver Center
Thu 10:43:37 PM 39.0106 -101.6592 110° East 481 554 39,000  Level Denver Center
Thu 10:44:39 PM 38.9661 -101.5061 110° East 478 550 39,000  Level Denver Center
Thu 10:45:40 PM 38.9214 -101.3511 110° East 483 556 39,000  Level Denver Center
Thu 10:46:41 PM 38.8700 -101.1742 110° East 476 548 39,000  Level Denver Center
Thu 10:47:43 PM 38.8247 -101.0231 111° Southeast 475 547 39,000  Level Denver Center
Thu 10:48:44 PM 38.7811 -100.8731 110° East 469 540 39,000  Level Denver Center
Thu 10:49:45 PM 38.7286 -100.6992 111° Southeast 467 537 39,000  Level Denver Center
Thu 10:50:47 PM 38.6842 -100.5478 111° Southeast 470 541 39,000  Level Denver Center
Thu 10:51:48 PM 38.6311 -100.3733 111° Southeast 472 543 39,000  Level Denver Center
Thu 10:52:49 PM 38.5853 -100.2222 111° Southeast 474 545 39,000  Level Denver Center
Thu 10:53:51 PM 38.5397 -100.0725 111° Southeast 472 543 39,000  Level Denver Center
Thu 10:54:52 PM 38.4869 -99.8981 111° Southeast 472 543 39,000  Level Denver Center
Thu 10:55:24 PM 38.4625 -99.8222 112° Southeast 470 541 39,000  Level Kansas City Center
Thu 10:56:25 PM 38.4161 -99.6719 111° Southeast 473 544 39,000 -1,180 Level Kansas City Center
Thu 10:57:26 PM 38.3617 -99.5003 112° Southeast 470 541 36,600 -2,754 Descending Kansas City Center
Thu 10:58:27 PM 38.3114 -99.3397 112° Southeast 481 554 33,400 -3,000 Descending Kansas City Center
Thu 10:59:28 PM 38.2611 -99.1814 112° Southeast 483 556 30,500 -3,000 Descending Kansas City Center
Thu 11:00:29 PM 38.2119 -99.0278 112° Southeast 474 545 27,300 -3,171 Descending Kansas City Center
Thu 11:01:31 PM 38.1656 -98.8775 111° Southeast 462 532 24,000 -3,122 Descending Kansas City Center
Thu 11:02:32 PM 38.1203 -98.7325 112° Southeast 447 514 20,900 -2,852 Descending Kansas City Center
Thu 11:03:33 PM 38.0753 -98.5947 112° Southeast 429 494 18,200 -3,061 Descending Kansas City Center
Thu 11:04:10 PM 38.0442 -98.4961 112° Southeast 410 472 15,900 -2,951 Descending Kansas City Center
Thu 11:04:34 PM 38.0336 -98.4611 111° Southeast 413 475 15,200 -2,471 Descending Kansas City Center
Thu 11:05:35 PM 37.9917 -98.3339 113° Southeast 396 456 12,400 -2,066 Descending Kansas City Center
Thu 11:06:36 PM 37.9392 -98.2236 121° Southeast 370 426 11,000 -1,328 Descending Kansas City Center
Thu 11:07:37 PM 37.8833 -98.1128 123° Southeast 316 364 9,700 -1,308 Descending Kansas City Center
Thu 11:07:54 PM 37.8714 -98.0917 126° Southeast 294 338 9,300 -1,672 Descending Kansas City Center
Thu 11:08:38 PM 37.8397 -98.0256 121° Southeast 298 343 8,000 -1,600 Descending Kansas City Center
Thu 11:09:39 PM 37.7956 -97.9397 123° Southeast 297 342 6,500 -1,385 Descending Kansas City Center
Thu 11:09:56 PM 37.7817 -97.9167 127° Southeast 297 342 6,200 -1,015 Descending Kansas City Center
Thu 11:10:44 PM 37.7456 -97.8453 123° Southeast 288 331 5,400 -962 Descending Kansas City Center
Thu 11:11:42 PM 37.7103 -97.7731 122° Southeast 283 326 4,500 -908 Descending Kansas City Center
Thu 11:12:43 PM 37.6683 -97.6919 123° Southeast 278 320 3,600 -769 Descending Kansas City Center
Thu 11:13:39 PM 37.6269 -97.6122 123° Southeast 250 288 3,000 -256 Descending Kansas City Center
Thu 11:14:40 PM 37.5881 -97.5575 132° Southeast 196 226 3,100  Climbing Kansas City Center
Thu 11:15:41 PM 37.5581 -97.5092 128° Southeast 159 183 3,000 -283 Descending Kansas City Center
Thu 11:16:47 PM 37.5831 -97.4706 51° Northeast 149 171 2,500 -567 Descending Kansas City Center
Thu 11:17:48 PM 37.6142 -97.4556 21° North 131 151 1,800 -689 Descending Kansas City Center

Login

Don't have an account? Register now (free) for customized features, flight alerts, and more!